Find Starlink 32156

NORAD ID: 60278 Int'l Des: 2024-132 Owner: SPXS Country: US Constellation: starlink operational
LEOCIRCULAR

リアルタイム位置

3D地球を読み込み中...

Starlink 32156について

説明を読み込み中...

次回通過

Passes for default location (London). Set your location on the main map for personalized predictions.

高度履歴

Loading altitude history...

軌道要素

1 60278U 24132A 26130.29463884 -.00000764 00000-0 -13691-4 0 9994
2 60278 53.1588 126.1917 0001110 91.6581 268.4546 15.30193617102212
Epoch: May 10, 2026 • Age: 16 hours

現在のステータス

高度 479.6 km
速度 7.63 km/s
衛星直下点 46.58°N, 33.65°E
打ち上げ日 Jul 28, 2024
運用期間 1.7 years
タイプ internet

技術仕様

分類 Payload
質量 730.00 kg
乾燥質量 700.00 kg
総質量 730.00 kg
長さ 0.30 m
直径 4.10 m
スパン 29.00 m
形状 Box + pan
製造者 SPXS
バスタイプ Starlink V2M
フェーズステータス In Orbit
所有者/国 SPXS/US

Most Searched